Time,TemperatureF,DewpointF,PressureIn,WindDirection,WindDirectionDegrees,WindSpeedMPH,WindSpeedGustMPH,Humidity,HourlyPrecipIn,Conditions,Clouds,dailyrainin,SoftwareType,DateUTC
2013-07-15 00:01:00,66.4,62.1,29.75,SSE,150,0.0,0.0,86,0.00,,,0.00,Wunderground v.1.15,2013-07-15 07:01:00,
2013-07-15 00:05:00,66.3,62.0,29.75,SSE,150,0.0,0.0,86,0.00,,,0.00,Wunderground v.1.15,2013-07-15 07:05:00,
2013-07-15 00:10:00,66.3,62.0,29.75,SSE,150,0.0,0.0,86,0.00,,,0.00,Wunderground v.1.15,2013-07-15 07:10:00,
2013-07-15 00:15:00,66.3,62.0,29.75,SSE,150,0.0,0.0,86,0.00,,,0.00,Wunderground v.1.15,2013-07-15 07:15:00,
2013-07-15 00:20:00,66.3,62.0,29.75,SSE,150,0.0,0.0,86,0.00,,,0.00,Wunderground v.1.15,2013-07-15 07:20:00,
2013-07-15 00:35:00,66.3,62.0,29.75,SSE,150,0.0,0.0,86,0.00,,,0.00,Wunderground v.1.15,2013-07-15 07:35:00,
2013-07-15 00:41:00,66.1,61.8,29.75,SSE,150,0.0,0.0,86,0.00,,,0.00,Wunderground v.1.15,2013-07-15 07:41:00,
2013-07-15 00:46:00,66.1,61.8,29.75,SSE,150,0.0,0.0,86,0.00,,,0.00,Wunderground v.1.15,2013-07-15 07:46:00,
2013-07-15 00:55:00,66.1,61.8,29.75,SSE,150,0.0,0.0,86,0.00,,,0.00,Wunderground v.1.15,2013-07-15 07:55:00,
2013-07-15 01:15:00,65.9,61.6,29.74,SSE,150,0.0,0.0,86,0.00,,,0.00,Wunderground v.1.15,2013-07-15 08:15:00,
2013-07-15 01:25:00,65.9,61.9,29.74,SSE,150,0.0,1.0,87,0.00,,,0.00,Wunderground v.1.15,2013-07-15 08:25:00,
2013-07-15 01:40:00,65.9,61.9,29.74,SSE,150,0.0,0.0,87,0.00,,,0.00,Wunderground v.1.15,2013-07-15 08:40:00,
2013-07-15 01:45:00,65.8,61.8,29.74,SSE,150,0.0,0.0,87,0.00,,,0.00,Wunderground v.1.15,2013-07-15 08:45:00,
2013-07-15 01:55:00,65.6,61.6,29.74,SSE,150,0.0,0.0,87,0.00,,,0.00,Wunderground v.1.15,2013-07-15 08:55:00,
2013-07-15 02:00:00,65.6,61.6,29.74,SSE,150,0.0,0.0,87,0.00,,,0.00,Wunderground v.1.15,2013-07-15 09:00:00,
2013-07-15 02:05:00,65.4,61.4,29.74,SSE,150,0.0,0.0,87,0.00,,,0.00,Wunderground v.1.15,2013-07-15 09:05:00,
2013-07-15 02:16:00,65.3,61.3,29.73,SSE,150,0.0,0.0,87,0.00,,,0.00,Wunderground v.1.15,2013-07-15 09:16:00,
2013-07-15 02:25:00,65.1,61.1,29.73,SSE,150,0.0,0.0,87,0.00,,,0.00,Wunderground v.1.15,2013-07-15 09:25:00,
2013-07-15 02:40:00,64.9,61.3,29.73,SSE,150,0.0,0.0,88,0.00,,,0.00,Wunderground v.1.15,2013-07-15 09:40:00,
2013-07-15 02:45:00,64.9,61.3,29.73,SSE,150,0.0,0.0,88,0.00,,,0.00,Wunderground v.1.15,2013-07-15 09:45:00,
2013-07-15 03:00:00,64.8,61.2,29.73,SSE,150,0.0,0.0,88,0.00,,,0.00,Wunderground v.1.15,2013-07-15 10:00:00,
2013-07-15 03:05:00,64.8,61.2,29.73,SSE,150,0.0,0.0,88,0.00,,,0.00,Wunderground v.1.15,2013-07-15 10:05:00,
2013-07-15 03:10:00,64.8,61.2,29.73,SSE,150,0.0,0.0,88,0.00,,,0.00,Wunderground v.1.15,2013-07-15 10:10:00,
2013-07-15 03:25:00,64.8,61.2,29.73,SSE,150,0.0,0.0,88,0.00,,,0.00,Wunderground v.1.15,2013-07-15 10:25:00,
2013-07-15 03:30:00,64.8,61.2,29.73,SSE,150,0.0,1.0,88,0.00,,,0.00,Wunderground v.1.15,2013-07-15 10:30:00,
2013-07-15 03:40:00,64.6,61.0,29.73,SSE,150,0.0,0.0,88,0.00,,,0.00,Wunderground v.1.15,2013-07-15 10:40:00,
2013-07-15 03:45:00,64.5,60.9,29.73,SSE,150,0.0,0.0,88,0.00,,,0.00,Wunderground v.1.15,2013-07-15 10:45:00,
2013-07-15 04:05:00,64.1,60.8,29.73,SSE,150,0.0,0.0,89,0.00,,,0.00,Wunderground v.1.15,2013-07-15 11:05:00,
2013-07-15 04:10:00,64.1,60.8,29.73,SSE,150,0.0,0.0,89,0.00,,,0.00,Wunderground v.1.15,2013-07-15 11:10:00,
2013-07-15 04:21:00,64.1,60.8,29.73,SSE,150,0.0,0.0,89,0.00,,,0.00,Wunderground v.1.15,2013-07-15 11:21:00,
2013-07-15 04:25:00,64.0,60.7,29.73,SSE,150,0.0,0.0,89,0.00,,,0.00,Wunderground v.1.15,2013-07-15 11:25:00,
2013-07-15 04:30:00,64.0,60.7,29.73,SSE,150,0.0,0.0,89,0.00,,,0.00,Wunderground v.1.15,2013-07-15 11:30:00,
2013-07-15 04:45:00,63.7,60.4,29.73,SSE,150,0.0,0.0,89,0.00,,,0.00,Wunderground v.1.15,2013-07-15 11:45:00,
2013-07-15 04:50:00,63.7,60.4,29.73,SSE,150,0.0,0.0,89,0.00,,,0.00,Wunderground v.1.15,2013-07-15 11:50:00,
2013-07-15 05:05:00,63.5,60.2,29.73,SSE,150,0.0,0.0,89,0.00,,,0.00,Wunderground v.1.15,2013-07-15 12:05:00,
2013-07-15 05:10:00,63.5,60.2,29.73,SSE,150,0.0,0.0,89,0.00,,,0.00,Wunderground v.1.15,2013-07-15 12:10:00,
2013-07-15 05:21:00,63.5,60.2,29.73,SSE,150,0.0,0.0,89,0.00,,,0.00,Wunderground v.1.15,2013-07-15 12:21:00,
2013-07-15 05:30:00,63.2,59.9,29.73,SSE,150,0.0,0.0,89,0.00,,,0.00,Wunderground v.1.15,2013-07-15 12:30:00,
2013-07-15 05:45:00,63.0,60.0,29.73,SSE,150,0.0,0.0,90,0.00,,,0.00,Wunderground v.1.15,2013-07-15 12:45:00,
2013-07-15 05:50:00,63.0,60.0,29.73,SSE,150,0.0,0.0,90,0.00,,,0.00,Wunderground v.1.15,2013-07-15 12:50:00,
2013-07-15 05:55:00,63.0,60.0,29.73,SSE,150,0.0,0.0,90,0.00,,,0.00,Wunderground v.1.15,2013-07-15 12:55:00,
2013-07-15 06:05:00,63.0,60.0,29.73,SSE,150,0.0,0.0,90,0.00,,,0.00,Wunderground v.1.15,2013-07-15 13:05:00,
2013-07-15 06:10:00,63.0,60.0,29.73,SSE,150,0.0,0.0,90,0.00,,,0.00,Wunderground v.1.15,2013-07-15 13:10:00,
2013-07-15 06:15:00,63.0,60.0,29.73,SSE,150,0.0,0.0,90,0.00,,,0.00,Wunderground v.1.15,2013-07-15 13:15:00,
2013-07-15 06:26:00,63.3,60.3,29.74,SSE,150,0.0,0.0,90,0.00,,,0.00,Wunderground v.1.15,2013-07-15 13:26:00,
2013-07-15 06:30:00,63.5,60.5,29.74,SSE,150,0.0,0.0,90,0.00,,,0.00,Wunderground v.1.15,2013-07-15 13:30:00,
2013-07-15 06:35:00,63.7,60.7,29.74,SSE,150,0.0,0.0,90,0.00,,,0.00,Wunderground v.1.15,2013-07-15 13:35:00,
2013-07-15 06:50:00,64.5,61.8,29.74,SSE,150,0.0,0.0,91,0.00,,,0.00,Wunderground v.1.15,2013-07-15 13:50:00,
2013-07-15 07:10:00,65.9,62.9,29.75,SSE,150,2.0,2.0,90,0.00,,,0.00,Wunderground v.1.15,2013-07-15 14:10:00,
2013-07-15 07:25:00,66.9,63.2,29.75,SE,144,2.0,2.0,88,0.00,,,0.00,Wunderground v.1.15,2013-07-15 14:25:00,
2013-07-15 07:30:00,66.9,62.9,29.75,SE,144,1.0,2.0,87,0.00,,,0.00,Wunderground v.1.15,2013-07-15 14:30:00,
2013-07-15 07:35:00,67.1,63.1,29.75,SE,144,1.0,1.0,87,0.00,,,0.00,Wunderground v.1.15,2013-07-15 14:35:00,
2013-07-15 07:40:00,67.1,62.8,29.75,SE,144,1.0,1.0,86,0.00,,,0.00,Wunderground v.1.15,2013-07-15 14:40:00,
2013-07-15 07:50:00,67.8,62.8,29.75,SSE,147,1.0,1.0,84,0.00,,,0.00,Wunderground v.1.15,2013-07-15 14:50:00,
2013-07-15 07:55:00,68.3,62.9,29.75,SSE,147,1.0,1.0,83,0.00,,,0.00,Wunderground v.1.15,2013-07-15 14:55:00,
2013-07-15 08:10:00,69.3,62.9,29.75,ENE,65,1.0,2.0,80,0.00,,,0.00,Wunderground v.1.15,2013-07-15 15:10:00,
2013-07-15 08:15:00,69.6,62.8,29.75,ENE,65,0.0,2.0,79,0.00,,,0.00,Wunderground v.1.15,2013-07-15 15:15:00,
2013-07-15 08:35:00,71.2,63.2,29.75,SW,222,1.0,1.0,76,0.00,,,0.00,Wunderground v.1.15,2013-07-15 15:35:00,
2013-07-15 08:40:00,71.2,62.9,29.75,SSW,209,1.0,2.0,75,0.00,,,0.00,Wunderground v.1.15,2013-07-15 15:40:00,
2013-07-15 08:55:00,71.8,63.1,29.76,South,175,0.0,2.0,74,0.00,,,0.00,Wunderground v.1.15,2013-07-15 15:55:00,
2013-07-15 09:05:00,71.8,63.1,29.76,SSW,206,3.0,4.0,74,0.00,,,0.00,Wunderground v.1.15,2013-07-15 16:05:00,
2013-07-15 09:10:00,72.0,62.9,29.76,SW,223,3.0,3.0,73,0.00,,,0.00,Wunderground v.1.15,2013-07-15 16:10:00,
2013-07-15 09:15:00,72.2,62.7,29.76,SSW,206,2.0,3.0,72,0.00,,,0.00,Wunderground v.1.15,2013-07-15 16:15:00,
2013-07-15 09:35:00,73.1,63.1,29.76,SW,222,2.0,4.0,71,0.00,,,0.00,Wunderground v.1.15,2013-07-15 16:35:00,
2013-07-15 09:45:00,73.6,63.2,29.76,South,174,3.0,3.0,70,0.00,,,0.00,Wunderground v.1.15,2013-07-15 16:45:00,
2013-07-15 09:55:00,73.9,63.1,29.76,WSW,237,4.0,7.0,69,0.00,,,0.00,Wunderground v.1.15,2013-07-15 16:55:00,
2013-07-15 10:00:00,73.8,63.0,29.76,SSW,196,4.0,4.0,69,0.00,,,0.00,Wunderground v.1.15,2013-07-15 17:00:00,
2013-07-15 10:15:00,73.8,63.0,29.76,South,182,3.0,5.0,69,0.00,,,0.00,Wunderground v.1.15,2013-07-15 17:15:00,
2013-07-15 10:20:00,73.9,62.7,29.75,South,179,4.0,4.0,68,0.00,,,0.00,Wunderground v.1.15,2013-07-15 17:20:00,
2013-07-15 10:25:00,74.3,62.6,29.75,SW,224,3.0,5.0,67,0.00,,,0.00,Wunderground v.1.15,2013-07-15 17:25:00,
2013-07-15 10:40:00,74.6,62.5,29.76,South,185,4.0,4.0,66,0.00,,,0.00,Wunderground v.1.15,2013-07-15 17:40:00,
2013-07-15 10:45:00,75.2,62.6,29.76,SSE,160,4.0,4.0,65,0.00,,,0.00,Wunderground v.1.15,2013-07-15 17:45:00,
2013-07-15 10:50:00,75.5,62.9,29.76,South,182,3.0,3.0,65,0.00,,,0.00,Wunderground v.1.15,2013-07-15 17:50:00,
2013-07-15 10:55:00,75.9,62.8,29.76,SSW,198,4.0,4.0,64,0.00,,,0.00,Wunderground v.1.15,2013-07-15 17:55:00,
2013-07-15 11:00:00,76.1,63.0,29.76,SSW,198,3.0,6.0,64,0.00,,,0.00,Wunderground v.1.15,2013-07-15 18:00:00,
2013-07-15 11:10:00,76.4,62.9,29.76,SSW,200,3.0,3.0,63,0.00,,,0.00,Wunderground v.1.15,2013-07-15 18:10:00,
2013-07-15 11:35:00,77.3,62.3,29.75,South,191,4.0,4.0,60,0.00,,,0.00,Wunderground v.1.15,2013-07-15 18:35:00,
2013-07-15 11:45:00,77.5,63.0,29.75,SSE,165,3.0,4.0,61,0.00,,,0.00,Wunderground v.1.15,2013-07-15 18:45:00,
2013-07-15 12:00:00,77.7,62.2,29.75,SSW,198,4.0,5.0,59,0.00,,,0.00,Wunderground v.1.15,2013-07-15 19:00:00,
2013-07-15 12:20:00,78.1,61.1,29.75,SSW,213,5.0,5.0,56,0.00,,,0.00,Wunderground v.1.15,2013-07-15 19:20:00,
2013-07-15 12:30:00,78.3,61.8,29.75,SW,216,4.0,6.0,57,0.00,,,0.00,Wunderground v.1.15,2013-07-15 19:30:00,
2013-07-15 12:40:00,78.1,62.6,29.75,South,172,5.0,5.0,59,0.00,,,0.00,Wunderground v.1.15,2013-07-15 19:40:00,
2013-07-15 13:15:00,78.4,61.4,29.74,South,185,5.0,5.0,56,0.00,,,0.00,Wunderground v.1.15,2013-07-15 20:15:00,
2013-07-15 13:25:00,79.6,61.5,29.74,SW,220,4.0,8.0,54,0.00,,,0.00,Wunderground v.1.15,2013-07-15 20:25:00,
2013-07-15 13:45:00,80.9,59.9,29.73,SSE,167,4.0,4.0,49,0.00,,,0.00,Wunderground v.1.15,2013-07-15 20:45:00,
2013-07-15 13:55:00,80.5,59.0,29.73,SSE,167,5.0,6.0,48,0.00,,,0.00,Wunderground v.1.15,2013-07-15 20:55:00,
2013-07-15 14:05:00,80.9,58.2,29.73,SW,216,5.0,5.0,46,0.00,,,0.00,Wunderground v.1.15,2013-07-15 21:05:00,
2013-07-15 14:10:00,81.5,58.1,29.73,SSW,198,4.0,4.0,45,0.00,,,0.00,Wunderground v.1.15,2013-07-15 21:10:00,
2013-07-15 14:30:00,82.8,57.4,29.72,SSW,210,5.0,6.0,42,0.00,,,0.00,Wunderground v.1.15,2013-07-15 21:30:00,
2013-07-15 14:35:00,82.3,56.9,29.72,SE,130,5.0,7.0,42,0.00,,,0.00,Wunderground v.1.15,2013-07-15 21:35:00,
2013-07-15 14:45:00,82.8,58.0,29.72,SW,215,5.0,12.0,43,0.00,,,0.00,Wunderground v.1.15,2013-07-15 21:45:00,
2013-07-15 14:55:00,80.1,57.5,29.72,WSW,251,8.0,8.0,46,0.00,,,0.00,Wunderground v.1.15,2013-07-15 21:55:00,
2013-07-15 15:10:00,80.7,56.8,29.71,SSW,213,6.0,6.0,44,0.00,,,0.00,Wunderground v.1.15,2013-07-15 22:10:00,
2013-07-15 15:15:00,80.9,56.9,29.70,South,186,6.0,6.0,44,0.00,,,0.00,Wunderground v.1.15,2013-07-15 22:15:00,
2013-07-15 15:20:00,80.1,56.8,29.70,SW,232,7.0,7.0,45,0.00,,,0.00,Wunderground v.1.15,2013-07-15 22:20:00,
2013-07-15 15:35:00,80.7,59.8,29.70,South,189,6.0,6.0,49,0.00,,,0.00,Wunderground v.1.15,2013-07-15 22:35:00,
2013-07-15 15:45:00,81.5,58.7,29.70,SW,224,5.0,5.0,46,0.00,,,0.00,Wunderground v.1.15,2013-07-15 22:45:00,
2013-07-15 15:50:00,82.3,58.8,29.69,SSW,200,4.0,4.0,45,0.00,,,0.00,Wunderground v.1.15,2013-07-15 22:50:00,
2013-07-15 16:06:00,84.4,58.8,29.69,SW,223,4.0,4.0,42,0.00,,,0.00,Wunderground v.1.15,2013-07-15 23:06:00,
2013-07-15 16:15:00,84.8,56.4,29.69,WNW,298,5.0,7.0,38,0.00,,,0.00,Wunderground v.1.15,2013-07-15 23:15:00,
2013-07-15 16:25:00,84.0,56.4,29.69,WNW,295,6.0,8.0,39,0.00,,,0.00,Wunderground v.1.15,2013-07-15 23:25:00,
2013-07-15 16:45:00,82.6,56.5,29.69,West,278,6.0,6.0,41,0.00,,,0.00,Wunderground v.1.15,2013-07-15 23:45:00,
2013-07-15 16:50:00,82.1,56.7,29.69,WNW,284,7.0,7.0,42,0.00,,,0.00,Wunderground v.1.15,2013-07-15 23:50:00,
2013-07-15 16:55:00,82.1,57.4,29.69,NW,318,7.0,8.0,43,0.00,,,0.00,Wunderground v.1.15,2013-07-15 23:55:00,
2013-07-15 17:05:00,82.1,56.7,29.69,NNW,344,6.0,7.0,42,0.00,,,0.00,Wunderground v.1.15,2013-07-16 00:05:00,
2013-07-15 17:20:00,81.5,56.8,29.69,WNW,294,6.0,6.0,43,0.00,,,0.00,Wunderground v.1.15,2013-07-16 00:20:00,
2013-07-15 17:30:00,80.7,56.8,29.69,NW,322,6.0,6.0,44,0.00,,,0.00,Wunderground v.1.15,2013-07-16 00:30:00,
2013-07-15 17:35:00,80.3,56.4,29.69,West,268,6.0,8.0,44,0.00,,,0.00,Wunderground v.1.15,2013-07-16 00:35:00,
2013-07-15 17:40:00,80.1,56.2,29.69,WNW,291,7.0,7.0,44,0.00,,,0.00,Wunderground v.1.15,2013-07-16 00:40:00,
2013-07-15 17:55:00,79.7,54.6,29.68,North,357,7.0,7.0,42,0.00,,,0.00,Wunderground v.1.15,2013-07-16 00:55:00,
2013-07-15 18:00:00,79.6,54.5,29.69,NW,319,7.0,8.0,42,0.00,,,0.00,Wunderground v.1.15,2013-07-16 01:00:00,
2013-07-15 18:05:00,79.4,53.6,29.69,NW,304,7.0,8.0,41,0.00,,,0.00,Wunderground v.1.15,2013-07-16 01:05:00,
2013-07-15 18:20:00,78.1,53.8,29.67,WNW,284,7.0,7.0,43,0.00,,,0.00,Wunderground v.1.15,2013-07-16 01:20:00,
2013-07-15 18:25:00,77.5,52.6,29.67,West,272,7.0,7.0,42,0.00,,,0.00,Wunderground v.1.15,2013-07-16 01:25:00,
2013-07-15 18:45:00,77.1,52.9,29.68,North,1,5.0,6.0,43,0.00,,,0.00,Wunderground v.1.15,2013-07-16 01:45:00,
2013-07-15 19:00:00,76.2,52.1,29.69,NNW,329,6.0,6.0,43,0.00,,,0.00,Wunderground v.1.15,2013-07-16 02:00:00,
2013-07-15 19:05:00,75.9,51.2,29.69,North,0,5.0,6.0,42,0.00,,,0.00,Wunderground v.1.15,2013-07-16 02:05:00,
2013-07-15 19:10:00,75.7,51.6,29.69,NNW,344,5.0,5.0,43,0.00,,,0.00,Wunderground v.1.15,2013-07-16 02:10:00,
2013-07-15 19:15:00,75.5,50.8,29.69,NNW,335,5.0,5.0,42,0.00,,,0.00,Wunderground v.1.15,2013-07-16 02:15:00,
2013-07-15 19:25:00,75.2,51.8,29.69,NW,325,5.0,5.0,44,0.00,,,0.00,Wunderground v.1.15,2013-07-16 02:25:00,
2013-07-15 19:51:00,74.1,53.2,29.69,NNW,332,2.0,2.0,48,0.00,,,0.00,Wunderground v.1.15,2013-07-16 02:51:00,
2013-07-15 19:55:00,73.6,53.8,29.69,NW,323,2.0,2.0,50,0.00,,,0.00,Wunderground v.1.15,2013-07-16 02:55:00,
2013-07-15 20:00:00,73.4,53.6,29.70,NW,323,2.0,2.0,50,0.00,,,0.00,Wunderground v.1.15,2013-07-16 03:00:00,
2013-07-15 20:05:00,73.1,54.4,29.70,WNW,296,2.0,2.0,52,0.00,,,0.00,Wunderground v.1.15,2013-07-16 03:05:00,
2013-07-15 20:26:00,72.0,55.4,29.70,NNW,328,2.0,2.0,56,0.00,,,0.00,Wunderground v.1.15,2013-07-16 03:26:00,
2013-07-15 20:30:00,71.5,55.5,29.71,NNW,328,3.0,3.0,57,0.00,,,0.00,Wunderground v.1.15,2013-07-16 03:30:00,
2013-07-15 20:40:00,70.6,55.6,29.71,NW,311,3.0,3.0,59,0.00,,,0.00,Wunderground v.1.15,2013-07-16 03:40:00,
2013-07-15 20:50:00,70.3,56.7,29.71,NW,318,2.0,2.0,62,0.00,,,0.00,Wunderground v.1.15,2013-07-16 03:50:00,
2013-07-15 21:10:00,69.1,55.5,29.72,NW,318,2.0,2.0,62,0.00,,,0.00,Wunderground v.1.15,2013-07-16 04:10:00,
2013-07-15 21:20:00,68.6,54.2,29.73,NW,318,2.0,2.0,60,0.00,,,0.00,Wunderground v.1.15,2013-07-16 04:20:00,
2013-07-15 21:25:00,68.4,54.0,29.73,NW,318,2.0,2.0,60,0.00,,,0.00,Wunderground v.1.15,2013-07-16 04:25:00,
2013-07-15 21:30:00,68.4,54.4,29.73,NW,318,1.0,3.0,61,0.00,,,0.00,Wunderground v.1.15,2013-07-16 04:30:00,
2013-07-15 21:45:00,68.1,53.2,29.74,NW,318,3.0,4.0,59,0.00,,,0.00,Wunderground v.1.15,2013-07-16 04:45:00,
2013-07-15 21:50:00,68.1,53.2,29.74,NW,320,3.0,4.0,59,0.00,,,0.00,Wunderground v.1.15,2013-07-16 04:50:00,
2013-07-15 21:55:00,67.9,53.5,29.74,NW,323,3.0,3.0,60,0.00,,,0.00,Wunderground v.1.15,2013-07-16 04:55:00,
2013-07-15 22:00:00,67.9,54.0,29.74,NNW,339,3.0,3.0,61,0.00,,,0.00,Wunderground v.1.15,2013-07-16 05:00:00,
2013-07-15 22:15:00,67.4,54.4,29.74,NNW,339,1.0,1.0,63,0.00,,,0.00,Wunderground v.1.15,2013-07-16 05:15:00,
2013-07-15 22:25:00,67.1,54.9,29.74,NNW,339,1.0,1.0,65,0.00,,,0.00,Wunderground v.1.15,2013-07-16 05:25:00,
2013-07-15 22:30:00,66.9,55.2,29.74,NNW,339,0.0,1.0,66,0.00,,,0.00,Wunderground v.1.15,2013-07-16 05:30:00,
2013-07-15 22:50:00,66.3,55.4,29.75,NNW,339,0.0,0.0,68,0.00,,,0.00,Wunderground v.1.15,2013-07-16 05:50:00,
2013-07-15 22:55:00,66.1,55.6,29.75,NNW,339,0.0,0.0,69,0.00,,,0.00,Wunderground v.1.15,2013-07-16 05:55:00,
2013-07-15 23:00:00,65.9,55.4,29.75,NNW,339,0.0,0.0,69,0.00,,,0.00,Wunderground v.1.15,2013-07-16 06:00:00,
2013-07-15 23:05:00,65.8,55.7,29.75,NNW,339,0.0,0.0,70,0.00,,,0.00,Wunderground v.1.15,2013-07-16 06:05:00,
2013-07-15 23:20:00,65.1,55.1,29.75,NNW,339,0.0,0.0,70,0.00,,,0.00,Wunderground v.1.15,2013-07-16 06:20:00,
2013-07-15 23:25:00,65.1,55.1,29.75,NNW,339,0.0,0.0,70,0.00,,,0.00,Wunderground v.1.15,2013-07-16 06:25:00,
2013-07-15 23:30:00,64.9,54.9,29.75,NNW,339,0.0,0.0,70,0.00,,,0.00,Wunderground v.1.15,2013-07-16 06:30:00,
2013-07-15 23:35:00,64.9,54.9,29.75,NNW,339,0.0,0.0,70,0.00,,,0.00,Wunderground v.1.15,2013-07-16 06:35:00,
2013-07-15 23:45:00,64.8,55.2,29.75,NNW,339,0.0,0.0,71,0.00,,,0.00,Wunderground v.1.15,2013-07-16 06:45:00,
2013-07-15 23:50:00,64.6,55.0,29.75,NNW,339,0.0,0.0,71,0.00,,,0.00,Wunderground v.1.15,2013-07-16 06:50:00,
2013-07-15 23:55:00,64.5,55.3,29.75,NNW,339,0.0,0.0,72,0.00,,,0.00,Wunderground v.1.15,2013-07-16 06:55:00,